Time,TemperatureF,DewpointF,PressureIn,WindDirection,WindDirectionDegrees,WindSpeedMPH,WindSpeedGustMPH,Humidity,HourlyPrecipIn,Conditions,Clouds,dailyrainin,SoftwareType,DateUTC
2013-01-08 00:02:00,29.0,23.0,29.37,NE,42,2.0,5.0,79,0.00,,,0.00,,2013-01-08 09:02:00,
2013-01-08 00:11:00,29.0,23.0,29.37,NE,42,2.0,5.0,79,0.00,,,0.00,,2013-01-08 09:11:00,
2013-01-08 00:22:00,29.0,23.0,29.37,NE,39,2.0,6.0,79,0.00,,,0.00,,2013-01-08 09:22:00,
2013-01-08 00:32:00,29.0,24.0,29.38,ENE,78,1.0,3.0,80,0.00,,,0.00,,2013-01-08 09:32:00,
2013-01-08 00:42:00,29.0,24.0,29.38,ENE,78,1.0,3.0,80,0.00,,,0.00,,2013-01-08 09:42:00,
2013-01-08 00:52:00,29.0,24.0,29.38,East,79,1.0,5.0,80,0.00,,,0.00,,2013-01-08 09:52:00,
2013-01-08 01:02:00,28.0,23.0,29.39,East,79,0.0,3.0,80,0.00,,,0.00,,2013-01-08 10:02:00,
2013-01-08 01:12:00,28.0,23.0,29.39,East,79,0.0,3.0,80,0.00,,,0.00,,2013-01-08 10:12:00,
2013-01-08 01:22:00,28.0,23.0,29.40,East,85,1.0,3.0,81,0.00,,,0.00,,2013-01-08 10:22:00,
2013-01-08 01:32:00,27.0,22.0,29.41,ESE,102,1.0,3.0,82,0.00,,,0.00,,2013-01-08 10:32:00,
2013-01-08 01:42:00,27.0,22.0,29.41,ESE,102,1.0,3.0,82,0.00,,,0.00,,2013-01-08 10:42:00,
2013-01-08 01:52:00,27.0,22.0,29.41,East,98,1.0,3.0,82,0.00,,,0.00,,2013-01-08 10:52:00,
2013-01-08 02:02:00,26.0,22.0,29.42,East,94,1.0,3.0,84,0.00,,,0.00,,2013-01-08 11:02:00,
2013-01-08 02:11:00,26.0,22.0,29.42,East,94,1.0,3.0,84,0.00,,,0.00,,2013-01-08 11:11:00,
2013-01-08 02:22:00,26.0,22.0,29.43,East,94,1.0,3.0,85,0.00,,,0.00,,2013-01-08 11:22:00,
2013-01-08 02:32:00,26.0,22.0,29.44,East,94,0.0,2.0,86,0.00,,,0.00,,2013-01-08 11:32:00,
2013-01-08 02:42:00,26.0,22.0,29.44,East,94,0.0,2.0,86,0.00,,,0.00,,2013-01-08 11:42:00,
2013-01-08 02:52:00,25.0,21.0,29.44,East,94,0.0,1.0,85,0.00,,,0.00,,2013-01-08 11:52:00,
2013-01-08 03:02:00,25.0,21.0,29.44,East,94,0.0,1.0,86,0.00,,,0.00,,2013-01-08 12:02:00,
2013-01-08 03:11:00,25.0,21.0,29.44,East,94,0.0,1.0,86,0.00,,,0.00,,2013-01-08 12:11:00,
2013-01-08 03:22:00,24.0,20.0,29.45,East,94,0.0,1.0,86,0.00,,,0.00,,2013-01-08 12:22:00,
2013-01-08 03:32:00,23.0,20.0,29.46,East,94,0.0,0.0,88,0.00,,,0.00,,2013-01-08 12:32:00,
2013-01-08 03:42:00,23.0,20.0,29.46,East,94,0.0,0.0,88,0.00,,,0.00,,2013-01-08 12:42:00,
2013-01-08 03:52:00,23.0,20.0,29.47,East,94,0.0,1.0,89,0.00,,,0.00,,2013-01-08 12:52:00,
2013-01-08 04:02:00,23.0,20.0,29.48,East,94,0.0,1.0,89,0.00,,,0.00,,2013-01-08 13:02:00,
2013-01-08 04:12:00,23.0,20.0,29.48,East,94,0.0,1.0,89,0.00,,,0.00,,2013-01-08 13:12:00,
2013-01-08 04:22:00,22.0,20.0,29.48,East,94,0.0,2.0,90,0.00,,,0.00,,2013-01-08 13:22:00,
2013-01-08 04:32:00,24.0,22.0,29.49,East,96,0.0,3.0,92,0.00,,,0.00,,2013-01-08 13:32:00,
2013-01-08 04:42:00,24.0,22.0,29.49,East,96,0.0,3.0,92,0.00,,,0.00,,2013-01-08 13:42:00,
2013-01-08 04:52:00,24.0,21.0,29.50,East,96,0.0,2.0,88,0.00,,,0.00,,2013-01-08 13:52:00,
2013-01-08 05:02:00,23.0,20.0,29.51,East,96,0.0,1.0,88,0.00,,,0.00,,2013-01-08 14:02:00,
2013-01-08 05:12:00,23.0,20.0,29.51,East,96,0.0,1.0,88,0.00,,,0.00,,2013-01-08 14:12:00,
2013-01-08 05:22:00,23.0,20.0,29.52,East,96,0.0,0.0,88,0.00,,,0.00,,2013-01-08 14:22:00,
2013-01-08 05:32:00,22.0,19.0,29.53,East,96,0.0,1.0,89,0.00,,,0.00,,2013-01-08 14:32:00,
2013-01-08 05:42:00,22.0,19.0,29.53,East,96,0.0,1.0,89,0.00,,,0.00,,2013-01-08 14:42:00,
2013-01-08 05:52:00,22.0,20.0,29.53,East,96,0.0,0.0,90,0.00,,,0.00,,2013-01-08 14:52:00,
2013-01-08 06:02:00,21.0,19.0,29.54,East,96,0.0,0.0,90,0.00,,,0.00,,2013-01-08 15:02:00,
2013-01-08 06:12:00,21.0,19.0,29.54,East,96,0.0,0.0,90,0.00,,,0.00,,2013-01-08 15:12:00,
2013-01-08 06:22:00,21.0,19.0,29.54,East,96,0.0,0.0,90,0.00,,,0.00,,2013-01-08 15:22:00,
2013-01-08 06:33:00,20.0,18.0,29.55,East,96,0.0,0.0,91,0.00,,,0.00,,2013-01-08 15:33:00,
2013-01-08 06:42:00,20.0,18.0,29.55,East,96,0.0,0.0,91,0.00,,,0.00,,2013-01-08 15:42:00,
2013-01-08 06:52:00,20.0,18.0,29.55,East,96,0.0,0.0,91,0.00,,,0.00,,2013-01-08 15:52:00,
2013-01-08 07:02:00,20.0,18.0,29.56,East,96,0.0,0.0,91,0.00,,,0.00,,2013-01-08 16:02:00,
2013-01-08 07:12:00,20.0,18.0,29.56,East,96,0.0,0.0,91,0.00,,,0.00,,2013-01-08 16:12:00,
2013-01-08 07:22:00,19.0,17.0,29.57,East,96,0.0,0.0,91,0.00,,,0.00,,2013-01-08 16:22:00,
2013-01-08 07:33:00,19.0,17.0,29.58,East,96,0.0,0.0,91,0.00,,,0.00,,2013-01-08 16:33:00,
2013-01-08 07:42:00,19.0,17.0,29.58,East,96,0.0,0.0,91,0.00,,,0.00,,2013-01-08 16:42:00,
2013-01-08 07:52:00,19.0,17.0,29.59,East,96,0.0,0.0,91,0.00,,,0.00,,2013-01-08 16:52:00,
2013-01-08 08:02:00,18.0,16.0,29.59,East,96,0.0,0.0,91,0.00,,,0.00,,2013-01-08 17:02:00,
2013-01-08 08:12:00,18.0,16.0,29.59,East,96,0.0,0.0,91,0.00,,,0.00,,2013-01-08 17:12:00,
2013-01-08 08:22:00,18.0,16.0,29.60,East,96,0.0,0.0,91,0.00,,,0.00,,2013-01-08 17:22:00,
2013-01-08 08:33:00,17.0,15.0,29.61,East,96,0.0,0.0,91,0.00,,,0.00,,2013-01-08 17:33:00,
2013-01-08 08:42:00,17.0,15.0,29.61,East,96,0.0,0.0,91,0.00,,,0.00,,2013-01-08 17:42:00,
2013-01-08 08:53:00,17.0,15.0,29.62,East,96,0.0,0.0,91,0.00,,,0.00,,2013-01-08 17:53:00,
2013-01-08 09:03:00,16.0,14.0,29.63,East,96,0.0,1.0,91,0.00,,,0.00,,2013-01-08 18:03:00,
2013-01-08 09:12:00,16.0,14.0,29.63,East,96,0.0,1.0,91,0.00,,,0.00,,2013-01-08 18:12:00,
2013-01-08 09:22:00,16.0,14.0,29.64,East,96,0.0,0.0,91,0.00,,,0.00,,2013-01-08 18:22:00,
2013-01-08 09:33:00,16.0,14.0,29.65,East,96,0.0,0.0,91,0.00,,,0.00,,2013-01-08 18:33:00,
2013-01-08 09:43:00,16.0,14.0,29.65,East,96,0.0,0.0,91,0.00,,,0.00,,2013-01-08 18:43:00,
2013-01-08 09:52:00,15.0,13.0,29.65,East,96,0.0,0.0,91,0.00,,,0.00,,2013-01-08 18:52:00,
2013-01-08 10:02:00,15.0,13.0,29.66,East,96,0.0,0.0,91,0.00,,,0.00,,2013-01-08 19:02:00,
2013-01-08 10:11:00,15.0,13.0,29.66,East,96,0.0,0.0,91,0.00,,,0.00,,2013-01-08 19:11:00,
2013-01-08 10:22:00,15.0,13.0,29.66,East,96,0.0,0.0,91,0.00,,,0.00,,2013-01-08 19:22:00,
2013-01-08 10:32:00,15.0,13.0,29.67,East,96,0.0,1.0,91,0.00,,,0.00,,2013-01-08 19:32:00,
2013-01-08 10:42:00,15.0,13.0,29.67,East,96,0.0,1.0,91,0.00,,,0.00,,2013-01-08 19:42:00,
2013-01-08 10:52:00,15.0,13.0,29.68,East,96,0.0,0.0,92,0.00,,,0.00,,2013-01-08 19:52:00,
2013-01-08 11:02:00,15.0,13.0,29.70,East,96,0.0,0.0,92,0.00,,,0.00,,2013-01-08 20:02:00,
2013-01-08 11:12:00,15.0,13.0,29.70,East,96,0.0,0.0,92,0.00,,,0.00,,2013-01-08 20:12:00,
2013-01-08 11:22:00,15.0,13.0,29.70,East,96,0.0,0.0,92,0.00,,,0.00,,2013-01-08 20:22:00,
2013-01-08 11:33:00,16.0,14.0,29.71,East,96,0.0,0.0,92,0.00,,,0.00,,2013-01-08 20:33:00,
2013-01-08 11:42:00,16.0,14.0,29.71,East,96,0.0,0.0,92,0.00,,,0.00,,2013-01-08 20:42:00,
2013-01-08 11:53:00,16.0,14.0,29.71,East,96,0.0,0.0,92,0.00,,,0.00,,2013-01-08 20:53:00,
2013-01-08 12:02:00,16.0,14.0,29.72,East,96,0.0,0.0,92,0.00,,,0.00,,2013-01-08 21:02:00,
2013-01-08 12:12:00,16.0,14.0,29.72,East,96,0.0,0.0,92,0.00,,,0.00,,2013-01-08 21:12:00,
2013-01-08 12:22:00,16.0,14.0,29.72,East,96,0.0,0.0,91,0.00,,,0.00,,2013-01-08 21:22:00,
2013-01-08 12:32:00,16.0,14.0,29.74,East,96,0.0,0.0,91,0.00,,,0.00,,2013-01-08 21:32:00,
2013-01-08 12:42:00,16.0,14.0,29.74,East,96,0.0,0.0,91,0.00,,,0.00,,2013-01-08 21:42:00,
2013-01-08 12:52:00,17.0,15.0,29.74,East,96,0.0,0.0,91,0.00,,,0.00,,2013-01-08 21:52:00,
2013-01-08 13:02:00,17.0,15.0,29.75,East,96,0.0,0.0,92,0.00,,,0.00,,2013-01-08 22:02:00,
2013-01-08 13:12:00,17.0,15.0,29.75,East,96,0.0,0.0,92,0.00,,,0.00,,2013-01-08 22:12:00,
2013-01-08 13:22:00,17.0,15.0,29.76,East,96,0.0,1.0,91,0.00,,,0.00,,2013-01-08 22:22:00,
2013-01-08 13:32:00,17.0,15.0,29.76,East,96,0.0,1.0,92,0.00,,,0.00,,2013-01-08 22:32:00,
2013-01-08 13:42:00,17.0,15.0,29.76,East,96,0.0,1.0,92,0.00,,,0.00,,2013-01-08 22:42:00,
2013-01-08 13:52:00,18.0,16.0,29.76,East,96,0.0,1.0,92,0.00,,,0.00,,2013-01-08 22:52:00,
2013-01-08 14:02:00,19.0,17.0,29.77,East,96,0.0,2.0,92,0.00,,,0.00,,2013-01-08 23:02:00,
2013-01-08 14:12:00,19.0,17.0,29.77,East,96,0.0,2.0,92,0.00,,,0.00,,2013-01-08 23:12:00,
2013-01-08 14:22:00,20.0,19.0,29.78,East,96,0.0,2.0,94,0.00,,,0.00,,2013-01-08 23:22:00,
2013-01-08 14:32:00,20.0,18.0,29.78,East,96,0.0,1.0,93,0.00,,,0.00,,2013-01-08 23:32:00,
2013-01-08 14:42:00,20.0,18.0,29.78,East,96,0.0,1.0,93,0.00,,,0.00,,2013-01-08 23:42:00,
2013-01-08 14:52:00,21.0,19.0,29.78,East,96,0.0,1.0,92,0.00,,,0.00,,2013-01-08 23:52:00,
2013-01-08 15:02:00,20.0,18.0,29.80,East,96,0.0,0.0,91,0.00,,,0.00,,2013-01-09 00:02:00,
2013-01-08 15:12:00,20.0,18.0,29.80,East,96,0.0,0.0,91,0.00,,,0.00,,2013-01-09 00:12:00,
2013-01-08 15:22:00,20.0,18.0,29.80,East,96,0.0,0.0,91,0.00,,,0.00,,2013-01-09 00:22:00,
2013-01-08 15:32:00,19.0,17.0,29.81,East,96,0.0,0.0,91,0.00,,,0.00,,2013-01-09 00:32:00,
2013-01-08 15:42:00,19.0,17.0,29.81,East,96,0.0,0.0,91,0.00,,,0.00,,2013-01-09 00:42:00,
2013-01-08 15:52:00,19.0,17.0,29.81,East,96,0.0,0.0,91,0.00,,,0.00,,2013-01-09 00:52:00,
2013-01-08 16:02:00,18.0,16.0,29.82,East,96,0.0,1.0,90,0.00,,,0.00,,2013-01-09 01:02:00,
2013-01-08 16:12:00,18.0,16.0,29.82,East,96,0.0,1.0,90,0.00,,,0.00,,2013-01-09 01:12:00,
2013-01-08 16:22:00,17.0,15.0,29.82,East,96,0.0,0.0,91,0.00,,,0.00,,2013-01-09 01:22:00,
2013-01-08 16:32:00,17.0,15.0,29.83,East,96,0.0,1.0,91,0.00,,,0.00,,2013-01-09 01:32:00,
2013-01-08 16:42:00,17.0,15.0,29.83,East,96,0.0,1.0,91,0.00,,,0.00,,2013-01-09 01:42:00,
2013-01-08 16:52:00,16.0,14.0,29.84,East,96,1.0,1.0,90,0.00,,,0.00,,2013-01-09 01:52:00,
2013-01-08 17:02:00,16.0,14.0,29.84,East,96,0.0,1.0,91,0.00,,,0.00,,2013-01-09 02:02:00,
2013-01-08 17:11:00,16.0,14.0,29.84,East,96,0.0,1.0,91,0.00,,,0.00,,2013-01-09 02:11:00,
2013-01-08 17:22:00,15.0,13.0,29.85,East,96,0.0,1.0,91,0.00,,,0.00,,2013-01-09 02:22:00,
2013-01-08 17:32:00,15.0,13.0,29.85,East,96,0.0,1.0,91,0.00,,,0.00,,2013-01-09 02:32:00,
2013-01-08 17:42:00,15.0,13.0,29.85,East,96,0.0,1.0,91,0.00,,,0.00,,2013-01-09 02:42:00,
2013-01-08 17:52:00,15.0,13.0,29.85,East,96,0.0,0.0,91,0.00,,,0.00,,2013-01-09 02:52:00,
2013-01-08 18:02:00,14.0,12.0,29.86,East,96,0.0,0.0,91,0.00,,,0.00,,2013-01-09 03:02:00,
2013-01-08 18:11:00,14.0,12.0,29.86,East,96,0.0,0.0,91,0.00,,,0.00,,2013-01-09 03:11:00,
2013-01-08 18:22:00,14.0,12.0,29.86,East,96,0.0,0.0,91,0.00,,,0.00,,2013-01-09 03:22:00,
2013-01-08 18:32:00,13.0,11.0,29.87,East,96,0.0,0.0,90,0.00,,,0.00,,2013-01-09 03:32:00,
2013-01-08 18:42:00,13.0,11.0,29.87,East,96,0.0,0.0,90,0.00,,,0.00,,2013-01-09 03:42:00,
2013-01-08 18:52:00,13.0,11.0,29.88,East,96,0.0,1.0,91,0.00,,,0.00,,2013-01-09 03:52:00,
2013-01-08 19:02:00,13.0,11.0,29.88,East,96,0.0,1.0,91,0.00,,,0.00,,2013-01-09 04:02:00,
2013-01-08 19:12:00,13.0,11.0,29.88,East,96,0.0,1.0,91,0.00,,,0.00,,2013-01-09 04:12:00,
2013-01-08 19:22:00,13.0,11.0,29.88,East,96,0.0,1.0,91,0.00,,,0.00,,2013-01-09 04:22:00,
2013-01-08 19:32:00,12.0,10.0,29.89,East,96,0.0,1.0,90,0.00,,,0.00,,2013-01-09 04:32:00,
2013-01-08 19:42:00,12.0,10.0,29.90,East,96,0.0,1.0,90,0.00,,,0.00,,2013-01-09 04:42:00,
2013-01-08 19:52:00,12.0,10.0,29.90,East,96,0.0,1.0,90,0.00,,,0.00,,2013-01-09 04:52:00,
2013-01-08 20:03:00,12.0,10.0,29.91,East,96,0.0,0.0,91,0.00,,,0.00,,2013-01-09 05:03:00,
2013-01-08 20:12:00,12.0,10.0,29.91,East,96,0.0,0.0,91,0.00,,,0.00,,2013-01-09 05:12:00,
2013-01-08 20:22:00,12.0,10.0,29.91,East,96,0.0,0.0,90,0.00,,,0.00,,2013-01-09 05:22:00,
2013-01-08 20:33:00,11.0,9.0,29.92,East,96,0.0,0.0,90,0.00,,,0.00,,2013-01-09 05:33:00,
2013-01-08 20:42:00,11.0,9.0,29.92,East,96,0.0,0.0,90,0.00,,,0.00,,2013-01-09 05:42:00,
2013-01-08 20:52:00,11.0,8.0,29.93,East,96,0.0,1.0,89,0.00,,,0.00,,2013-01-09 05:52:00,
2013-01-08 21:02:00,11.0,9.0,29.93,East,96,0.0,1.0,91,0.00,,,0.00,,2013-01-09 06:02:00,
2013-01-08 21:11:00,11.0,9.0,29.93,East,96,0.0,1.0,91,0.00,,,0.00,,2013-01-09 06:11:00,
2013-01-08 21:22:00,12.0,10.0,29.93,East,96,0.0,1.0,92,0.00,,,0.00,,2013-01-09 06:22:00,
2013-01-08 21:32:00,13.0,11.0,29.94,East,96,0.0,0.0,91,0.00,,,0.00,,2013-01-09 06:32:00,
2013-01-08 21:42:00,13.0,11.0,29.94,East,96,0.0,0.0,91,0.00,,,0.00,,2013-01-09 06:42:00,
2013-01-08 21:52:00,13.0,11.0,29.94,East,96,0.0,0.0,91,0.00,,,0.00,,2013-01-09 06:52:00,
2013-01-08 22:02:00,12.0,10.0,29.96,East,96,0.0,0.0,90,0.00,,,0.00,,2013-01-09 07:02:00,
2013-01-08 22:11:00,12.0,10.0,29.96,East,96,0.0,0.0,90,0.00,,,0.00,,2013-01-09 07:11:00,
2013-01-08 22:22:00,12.0,10.0,29.96,East,96,0.0,1.0,90,0.00,,,0.00,,2013-01-09 07:22:00,
2013-01-08 22:32:00,12.0,10.0,29.96,East,96,0.0,0.0,90,0.00,,,0.00,,2013-01-09 07:32:00,
2013-01-08 22:42:00,12.0,10.0,29.96,East,96,0.0,0.0,90,0.00,,,0.00,,2013-01-09 07:42:00,
2013-01-08 22:52:00,11.0,8.0,29.97,East,96,0.0,0.0,89,0.00,,,0.00,,2013-01-09 07:52:00,
2013-01-08 23:02:00,11.0,8.0,29.98,East,96,0.0,0.0,89,0.00,,,0.00,,2013-01-09 08:02:00,
2013-01-08 23:11:00,11.0,8.0,29.98,East,96,0.0,0.0,89,0.00,,,0.00,,2013-01-09 08:11:00,
2013-01-08 23:22:00,10.0,7.0,29.98,East,96,0.0,0.0,89,0.00,,,0.00,,2013-01-09 08:22:00,
2013-01-08 23:32:00,10.0,7.0,29.99,East,96,0.0,1.0,89,0.00,,,0.00,,2013-01-09 08:32:00,
2013-01-08 23:42:00,10.0,7.0,29.99,East,96,0.0,1.0,89,0.00,,,0.00,,2013-01-09 08:42:00,
2013-01-08 23:52:00,9.0,6.0,29.99,East,96,0.0,0.0,89,0.00,,,0.00,,2013-01-09 08:52:00,